• In Netherlands
  • List of Countries
  • For 7 days
  • Water Temperature
  • Satellite Maps
  • Weather Map
  • Weather Widgets
  • user-avatar
    Login

    Hourly Weather Córdoba

    Today, 25 June, Sunday

    Time Temperature Precipitation Wind Pressure Humidity
    00:00 +18°C° 0 mm 4 mps 720 mmHg 86%
    01:00 +18°C° 0 mm 4 mps 720 mmHg 87%
    02:00 +17°C° 0 mm 4 mps 720 mmHg 87%
    03:00 +17°C° 0 mm 4 mps 720 mmHg 88%
    04:00 +17°C° 0 mm 4 mps 720 mmHg 89%
    05:00 +17°C° 0 mm 4 mps 719 mmHg 90%
    06:00 +16°C° 0 mm 5 mps 720 mmHg 89%
    07:00 +16°C° 0 mm 5 mps 720 mmHg 88%
    08:00 +16°C° 0 mm 5 mps 720 mmHg 87%
    09:00 +20°C° 0 mm 6 mps 720 mmHg 77%
    10:00 +22°C° 0 mm 8 mps 720 mmHg 66%
    11:00 +26°C° 0 mm 9 mps 721 mmHg 56%
    12:00 +27°C° 0 mm 9 mps 720 mmHg 53%
    13:00 +27°C° 0 mm 9 mps 720 mmHg 50%
    14:00 +28°C° 0 mm 9 mps 719 mmHg 46%
    15:00 +28°C° 0 mm 8 mps 719 mmHg 49%
    16:00 +27°C° 0 mm 6 mps 719 mmHg 51%
    17:00 +26°C° 0 mm 5 mps 719 mmHg 54%
    18:00 +25°C° 0 mm 5 mps 719 mmHg 59%
    19:00 +23°C° 0 mm 5 mps 719 mmHg 63%
    20:00 +21°C° 0 mm 4 mps 719 mmHg 68%
    21:00 +21°C° 0 mm 4 mps 719 mmHg 69%
    22:00 +21°C° 0 mm 5 mps 719 mmHg 71%
    23:00 +20°C° 0 mm 5 mps 719 mmHg 73%

    Tomorrow, 26 June, Monday

    Time Temperature Precipitation Wind Pressure Humidity
    00:00 +20°C° 0 mm 4 mps 719 mmHg 75%
    01:00 +19°C° 0 mm 4 mps 719 mmHg 77%
    02:00 +19°C° 0 mm 4 mps 719 mmHg 80%
    03:00 +18°C° 0 mm 4 mps 718 mmHg 82%
    04:00 +18°C° 0 mm 3 mps 718 mmHg 84%
    05:00 +18°C° 0 mm 3 mps 718 mmHg 87%
    06:00 +18°C° 0 mm 3 mps 718 mmHg 86%
    07:00 +18°C° 0 mm 3 mps 719 mmHg 86%
    08:00 +18°C° 0 mm 2 mps 719 mmHg 86%
    09:00 +19°C° 0 mm 3 mps 719 mmHg 76%
    10:00 +21°C° 0 mm 5 mps 719 mmHg 67%
    11:00 +23°C° 0 mm 6 mps 719 mmHg 58%
    12:00 +23°C° 0 mm 5 mps 719 mmHg 58%
    13:00 +23°C° 0 mm 5 mps 718 mmHg 58%
    14:00 +23°C° 0 mm 4 mps 718 mmHg 58%
    15:00 +24°C° 0 mm 3 mps 717 mmHg 61%
    16:00 +22°C° 0 mm 3 mps 717 mmHg 64%
    17:00 +21°C° 0 mm 2 mps 717 mmHg 67%
    18:00 +21°C° 0.3 mm 2 mps 718 mmHg 70%
    19:00 +21°C° 0.3 mm 2 mps 718 mmHg 72%
    20:00 +21°C° 0.3 mm 1 mps 718 mmHg 75%
    21:00 +21°C° 1.7 mm 1 mps 719 mmHg 77%
    22:00 +21°C° 1.7 mm 1 mps 719 mmHg 80%
    23:00 +20°C° 1.7 mm 1 mps 719 mmHg 83%

    Day after tomorrow, 27 June, Tuesday

    Time Temperature Precipitation Wind Pressure Humidity
    00:00 +20°C° 0.8 mm 1 mps 719 mmHg 84%
    01:00 +19°C° 0.8 mm 1 mps 719 mmHg 86%
    02:00 +19°C° 0.8 mm 1 mps 719 mmHg 87%
    03:00 +18°C° 0.7 mm 2 mps 719 mmHg 89%
    04:00 +17°C° 0.7 mm 2 mps 719 mmHg 90%
    05:00 +17°C° 0.7 mm 3 mps 719 mmHg 92%
    06:00 +17°C° 0.1 mm 3 mps 720 mmHg 90%
    07:00 +15°C° 0.1 mm 4 mps 721 mmHg 89%
    08:00 +15°C° 0.1 mm 4 mps 722 mmHg 88%
    09:00 +17°C° 0 mm 3 mps 722 mmHg 80%
    10:00 +18°C° 0 mm 3 mps 723 mmHg 72%
    11:00 +19°C° 0 mm 3 mps 724 mmHg 64%
    12:00 +20°C° 0 mm 3 mps 724 mmHg 60%
    13:00 +20°C° 0 mm 3 mps 724 mmHg 55%
    14:00 +21°C° 0 mm 4 mps 724 mmHg 51%
    15:00 +20°C° 0 mm 4 mps 724 mmHg 53%
    16:00 +19°C° 0 mm 4 mps 724 mmHg 55%
    17:00 +16°C° 0 mm 5 mps 724 mmHg 56%
    18:00 +15°C° 0 mm 4 mps 725 mmHg 59%
    19:00 +14°C° 0 mm 4 mps 726 mmHg 62%
    20:00 +13°C° 0 mm 4 mps 726 mmHg 65%
    21:00 +12°C° 0 mm 4 mps 727 mmHg 67%
    22:00 +11°C° 0 mm 4 mps 727 mmHg 69%
    23:00 +11°C° 0 mm 3 mps 728 mmHg 71%

    28 June, Wednesday

    Time Temperature Precipitation Wind Pressure Humidity
    00:00 +10°C° 0 mm 3 mps 727 mmHg 73%
    01:00 +10°C° 0 mm 3 mps 727 mmHg 74%
    02:00 +9°C° 0 mm 3 mps 727 mmHg 75%
    03:00 +9°C° 0 mm 3 mps 727 mmHg 76%
    04:00 +8°C° 0 mm 3 mps 727 mmHg 77%
    05:00 +8°C° 0 mm 3 mps 726 mmHg 77%
    06:00 +8°C° 0 mm 2 mps 727 mmHg 77%
    07:00 +8°C° 0 mm 2 mps 727 mmHg 76%
    08:00 +9°C° 0 mm 1 mps 727 mmHg 76%
    09:00 +11°C° 0 mm 1 mps 728 mmHg 69%
    10:00 +12°C° 0 mm 1 mps 728 mmHg 62%
    11:00 +14°C° 0 mm 2 mps 728 mmHg 54%
    12:00 +15°C° 0 mm 2 mps 727 mmHg 52%
    13:00 +15°C° 0 mm 2 mps 727 mmHg 49%
    14:00 +16°C° 0 mm 2 mps 726 mmHg 47%
    15:00 +15°C° 0 mm 2 mps 726 mmHg 50%
    16:00 +15°C° 0 mm 2 mps 726 mmHg 53%
    17:00 +14°C° 0 mm 2 mps 726 mmHg 56%
    18:00 +13°C° 0 mm 1 mps 726 mmHg 61%
    19:00 +12°C° 0 mm 1 mps 727 mmHg 67%
    20:00 +11°C° 0 mm 1 mps 727 mmHg 72%
    21:00 +10°C° 0 mm 1 mps 727 mmHg 74%
    22:00 +9°C° 0 mm 0 mps 728 mmHg 76%
    23:00 +8°C° 0 mm 0 mps 728 mmHg 78%

    29 June, Thursday

    Time Temperature Precipitation Wind Pressure Humidity
    00:00 +8°C° 0 mm 0 mps 727 mmHg 78%
    01:00 +9°C° 0 mm 1 mps 727 mmHg 78%
    02:00 +9°C° 0 mm 1 mps 727 mmHg 79%
    03:00 +9°C° 0 mm 1 mps 727 mmHg 79%
    04:00 +8°C° 0 mm 1 mps 727 mmHg 80%
    05:00 +8°C° 0 mm 1 mps 726 mmHg 80%
    06:00 +8°C° 0 mm 1 mps 727 mmHg 79%
    07:00 +9°C° 0 mm 1 mps 727 mmHg 77%
    08:00 +9°C° 0 mm 1 mps 727 mmHg 75%
    09:00 +11°C° 0 mm 1 mps 728 mmHg 65%
    10:00 +14°C° 0 mm 1 mps 728 mmHg 56%
    11:00 +16°C° 0 mm 1 mps 728 mmHg 46%
    12:00 +17°C° 0 mm 2 mps 728 mmHg 43%
    13:00 +18°C° 0 mm 2 mps 727 mmHg 41%
    14:00 +19°C° 0 mm 2 mps 727 mmHg 38%
    15:00 +18°C° 0 mm 2 mps 726 mmHg 43%
    16:00 +17°C° 0 mm 2 mps 726 mmHg 47%
    17:00 +16°C° 0 mm 2 mps 726 mmHg 52%
    18:00 +14°C° 0 mm 2 mps 726 mmHg 57%
    19:00 +13°C° 0 mm 2 mps 726 mmHg 61%
    20:00 +12°C° 0 mm 2 mps 726 mmHg 66%
    21:00 +12°C° 0 mm 2 mps 727 mmHg 67%
    22:00 +10°C° 0 mm 2 mps 727 mmHg 68%
    23:00 +10°C° 0 mm 2 mps 727 mmHg 69%

    30 June, Friday

    Time Temperature Precipitation Wind Pressure Humidity
    00:00 +10°C° 0 mm 2 mps 727 mmHg 69%
    01:00 +10°C° 0 mm 2 mps 726 mmHg 69%
    02:00 +9°C° 0 mm 2 mps 726 mmHg 69%
    03:00 +9°C° 0 mm 2 mps 726 mmHg 68%
    04:00 +9°C° 0 mm 2 mps 725 mmHg 68%
    05:00 +9°C° 0 mm 2 mps 725 mmHg 67%
    06:00 +9°C° 0 mm 2 mps 725 mmHg 65%
    07:00 +9°C° 0 mm 2 mps 726 mmHg 63%
    08:00 +9°C° 0 mm 2 mps 726 mmHg 61%
    09:00 +12°C° 0 mm 3 mps 726 mmHg 53%
    10:00 +16°C° 0 mm 3 mps 726 mmHg 44%
    11:00 +19°C° 0 mm 3 mps 727 mmHg 36%
    12:00 +20°C° 0 mm 3 mps 726 mmHg 34%
    13:00 +21°C° 0 mm 3 mps 726 mmHg 33%
    14:00 +22°C° 0 mm 3 mps 725 mmHg 31%
    15:00 +20°C° 0 mm 2 mps 726 mmHg 37%
    16:00 +19°C° 0 mm 2 mps 726 mmHg 43%
    17:00 +18°C° 0 mm 2 mps 726 mmHg 49%
    18:00 +16°C° 0 mm 3 mps 726 mmHg 53%
    19:00 +14°C° 0 mm 3 mps 727 mmHg 57%
    20:00 +13°C° 0 mm 3 mps 728 mmHg 61%
    21:00 +12°C° 0 mm 4 mps 729 mmHg 62%
    22:00 +11°C° 0 mm 4 mps 729 mmHg 62%
    23:00 +10°C° 0 mm 5 mps 730 mmHg 63%
    Show more